GFSFLT1_850_temp_057.txt.gz
Temp
10 8 8 9 9 9 10 9 9 9 9 9 10 10 11 11 11 11 12 12 12 12 13 12 13 12 12 11 11 11 11 11
10 10 9 8 8 9 9 9 8 8 8 8 9 10 10 10 11 10 11 12 13 12 12 13 13 12 12 11 11 11 11 10
11 10 9 8 8 8 8 8 8 7 8 8 9 10 10 10 10 11 11 12 12 12 12 12 12 12 12 11 11 11 10 10
11 11 9 8 8 7 8 8 8 7 8 8 9 10 10 11 10 10 11 12 11 12 12 12 12 12 12 11 11 11 11 10
13 13 12 11 8 8 8 8 8 8 8 8 9 10 10 11 11 11 12 12 12 12 12 12 12 12 11 11 11 11 11 11
14 14 15 13 12 11 9 8 8 9 9 9 9 10 10 10 10 11 12 12 12 12 12 12 12 11 11 11 11 11 11 10
14 14 14 14 13 11 10 10 10 10 11 10 9 9 9 10 11 11 11 12 12 13 13 12 12 11 11 11 10 10 10 10
15 14 14 14 13 13 11 10 11 11 11 10 10 10 9 10 11 11 12 12 12 12 12 12 12 12 11 11 11 10 10 10
15 15 14 15 14 13 13 12 12 11 11 11 11 11 11 12 12 12 12 12 12 12 12 12 12 12 12 11 11 10 10 10
15 15 15 15 14 14 14 13 13 13 12 12 11 12 12 12 12 12 11 12 12 12 12 12 12 11 11 12 11 11 10 10
15 14 15 16 15 15 13 13 13 13 12 12 12 12 12 12 12 12 12 12 11 11 11 12 12 11 11 11 11 11 10 9
17 17 16 16 16 15 14 13 13 13 13 13 13 13 14 13 12 13 13 12 11 11 11 11 11 11 11 10 10 9 9 9
20 19 17 13 14 15 15 15 13 13 14 14 14 13 12 12 12 13 13 13 12 11 11 12 12 11 9 9 9 9 9 8
18 18 16 16 16 15 15 15 15 15 14 14 13 13 11 12 13 12 12 13 12 12 10 11 11 11 10 9 8 8 8 8
20 19 19 19 18 18 17 17 16 15 14 14 14 14 14 13 13 12 11 12 12 12 11 11 11 10 9 8 8 8 8 7
21 21 21 21 20 19 18 19 18 16 13 12 13 14 14 13 12 12 12 12 12 11 10 10 10 9 9 8 8 8 7 6
21 21 21 21 21 20 20 20 19 17 15 14 13 13 13 13 13 13 12 12 10 10 11 10 9 9 8 8 8 7 6 5
21 21 20 20 21 21 20 20 19 18 17 15 14 13 13 12 13 12 12 13 10 9 10 9 9 8 8 8 7 6 5 4
22 22 21 20 20 20 20 19 19 18 17 15 15 14 13 13 13 12 11 10 10 10 9 9 8 7 7 6 5 4 3 2

GFSFLT1_850_temp_060.txt.gz
Temp
10 9 9 9 9 10 10 10 10 10 10 9 9 11 11 11 12 12 12 12 12 12 12 12 12 12 12 12 12 12 11 11
9 9 8 9 9 9 9 10 10 9 9 9 10 10 11 11 12 12 12 11 12 11 12 14 12 12 12 12 12 11 11 11
9 8 8 8 9 9 9 9 9 9 9 9 9 10 10 11 11 11 11 12 11 12 12 13 12 12 12 13 12 12 11 10
10 9 8 9 8 8 8 8 9 9 8 9 9 9 10 10 10 11 11 11 10 11 12 11 12 11 12 12 12 12 11 11
11 11 10 10 9 8 8 8 8 8 8 9 9 9 9 10 10 11 11 11 10 11 11 11 12 12 12 12 12 11 11 10
13 12 13 12 11 9 8 8 8 8 8 8 9 9 9 9 10 11 11 11 11 11 11 11 12 12 12 12 11 11 11 10
14 13 13 12 12 11 9 8 8 8 8 9 8 9 10 10 10 10 10 11 11 11 11 12 12 12 12 12 11 11 11 11
15 14 13 13 13 13 11 10 9 8 8 8 8 9 10 10 10 11 11 11 11 11 11 12 12 12 12 12 11 11 10 10
17 16 15 15 14 14 13 12 11 9 9 8 9 9 9 9 10 10 11 11 11 11 12 12 12 12 12 12 11 11 10 10
18 17 16 16 15 15 14 14 13 11 11 11 11 10 10 10 10 10 10 11 11 11 11 12 12 11 11 11 11 11 11 10
16 17 18 17 17 16 15 15 14 14 13 12 12 12 11 11 11 11 11 11 12 12 12 12 11 11 11 11 10 11 11 11
19 18 19 18 17 16 16 15 15 14 14 14 14 14 14 13 13 13 12 12 12 12 12 11 11 11 12 11 10 10 10 10
19 19 17 17 16 16 16 16 15 15 15 14 14 14 14 14 14 13 12 12 11 12 11 11 10 11 11 11 10 10 10 10
20 18 19 19 17 17 16 17 17 16 15 15 14 14 14 13 12 12 12 12 12 12 11 10 10 11 12 11 11 10 9 9
20 19 20 20 19 19 18 18 18 16 16 15 14 14 14 14 13 13 13 12 12 12 11 11 11 11 11 11 10 9 9 8
21 20 21 21 20 20 19 19 19 18 16 15 15 15 15 14 13 13 13 13 12 12 11 11 11 10 11 10 10 9 9 8
22 22 21 21 21 21 21 20 20 19 18 18 17 14 14 14 14 13 13 13 12 11 10 10 10 10 10 10 9 9 8 8
21 22 22 22 22 22 21 21 19 19 19 18 17 15 14 13 13 12 12 11 11 11 10 10 10 9 9 9 9 8 8 7
21 21 21 22 21 21 21 20 20 19 19 18 17 16 14 12 12 12 10 10 10 10 10 9 9 9 9 8 9 8 6 5

GFSFLT1_850_temp_063.txt.gz
Temp
10 10 10 9 10 10 10 9 10 10 9 9 9 9 10 10 10 11 12 12 12 12 11 12 12 12 12 11 11 12 11 11
10 9 8 8 9 10 9 10 10 10 9 8 9 10 10 10 10 11 11 12 11 11 12 11 11 12 12 12 12 12 12 11
9 8 8 9 9 9 10 10 10 9 9 9 9 9 10 11 11 11 12 11 11 11 11 12 12 12 13 12 12 12 11 11
10 10 9 8 9 9 9 9 9 10 9 9 9 9 10 10 11 11 11 11 11 11 11 12 11 12 12 12 12 11 12 12
11 10 10 8 8 9 9 9 9 9 9 9 9 9 10 10 11 10 11 11 11 11 11 11 10 11 12 12 12 11 11 11
13 14 14 13 8 8 8 9 9 9 9 9 9 10 10 10 11 11 11 11 10 11 12 11 10 12 11 12 11 11 11 11
14 14 14 13 12 9 8 8 8 8 8 9 9 10 10 10 10 11 10 11 11 11 11 10 10 11 11 11 11 11 11 11
13 13 13 13 13 11 9 9 9 9 8 9 9 9 9 10 10 11 10 10 11 11 11 10 10 11 11 11 11 11 11 11
16 15 15 15 14 13 12 11 10 10 9 9 9 9 9 9 10 10 10 10 11 11 11 11 11 11 11 11 11 11 11 11
17 16 15 15 15 15 14 13 12 11 11 10 9 9 9 9 9 9 10 10 10 11 11 11 11 11 11 11 11 11 11 11
15 16 17 16 15 15 15 15 15 14 12 11 11 11 10 10 10 10 10 10 10 10 10 11 11 10 11 11 11 11 11 11
17 17 16 16 16 15 15 15 15 15 14 13 12 12 11 11 11 11 10 10 10 10 11 11 11 11 11 11 11 11 11 11
18 17 17 16 16 16 15 15 15 16 15 15 15 14 13 12 12 13 12 12 12 12 11 11 11 11 11 11 10 10 9 10
19 18 17 18 17 17 16 16 16 15 15 15 15 14 14 14 14 13 12 13 13 13 13 13 12 11 11 10 10 10 10 10
20 20 21 20 19 18 18 17 16 15 15 15 15 15 15 15 15 14 14 13 13 13 13 12 12 12 11 10 10 10 9 10
20 21 21 21 20 20 21 20 19 17 16 15 16 15 15 14 14 14 14 13 13 13 12 12 12 11 11 11 10 10 10 10
21 21 20 20 21 21 21 21 21 20 19 19 17 15 15 15 14 14 13 13 13 12 12 12 10 10 10 10 9 9 9 9
21 21 21 21 21 22 21 22 21 21 20 20 18 17 16 15 14 13 13 13 12 12 11 11 11 10 10 9 9 9 9 8
21 21 21 22 21 21 21 20 21 21 20 20 19 18 17 15 13 12 12 11 11 10 9 10 9 9 9 9 9 9 8 8

GFSFLT1_850_temp_066.txt.gz
Temp
11 11 10 10 10 10 10 10 10 10 9 9 9 9 9 9 9 9 11 12 11 11 12 13 12 11 10 11 12 11 10 10
11 10 9 9 10 10 10 10 10 10 9 9 9 9 9 9 9 10 11 12 12 11 13 12 12 10 11 11 12 11 11 10
11 9 8 9 9 10 10 10 10 10 10 9 9 9 9 9 10 10 10 11 11 12 12 12 12 11 12 11 12 12 11 12
11 10 9 9 9 9 10 10 10 10 10 9 8 9 8 9 10 10 11 11 11 11 11 11 11 11 11 11 11 12 10 11
13 11 10 9 9 9 9 10 10 10 10 9 9 9 9 9 9 10 11 11 11 10 11 11 11 11 11 11 11 11 11 10
14 12 11 10 9 9 9 9 9 10 10 9 9 9 9 8 8 10 11 11 10 10 10 11 11 10 11 11 11 11 12 11
15 13 12 11 9 9 8 8 9 9 9 9 9 8 8 8 9 9 10 10 9 10 10 10 10 11 11 11 10 10 11 11
15 14 13 12 10 9 8 8 8 9 9 9 9 9 9 9 10 11 10 10 10 9 9 10 10 11 11 11 10 11 11 11
16 15 14 12 11 10 9 9 9 8 9 9 8 9 10 9 10 10 10 10 10 10 10 10 10 11 11 11 10 10 11 10
17 15 14 13 11 11 10 10 10 9 8 10 9 9 9 9 9 10 10 11 11 11 10 10 11 11 11 11 9 9 10 9
17 16 14 13 12 11 10 10 10 10 9 9 9 9 8 9 9 9 10 10 10 10 10 11 10 11 10 9 9 9 9 9
17 16 15 13 12 12 12 11 11 10 9 9 9 9 9 9 9 9 9 9 9 9 10 10 10 10 9 9 9 9 9 10
18 17 15 14 13 12 11 11 10 10 10 10 9 9 9 9 10 10 10 10 9 9 9 9 9 9 9 9 9 9 10 11
18 17 16 15 14 13 12 13 15 12 10 10 10 10 10 11 12 11 10 9 9 9 9 9 9 10 10 9 9 10 11 11
19 18 17 16 15 14 13 12 13 12 11 11 10 12 13 12 11 11 11 11 11 11 10 9 9 9 9 9 10 12 12 11
20 19 19 18 16 15 14 13 13 13 11 11 15 15 14 12 12 12 12 11 11 9 9 10 12 11 12 11 11 11 12 12
20 20 20 19 18 16 15 14 14 15 15 17 14 12 13 15 14 13 12 12 12 11 11 10 10 10 12 12 12 10 10 10
19 19 19 19 19 20 18 19 15 16 19 16 14 12 12 12 14 13 13 12 11 10 10 10 10 10 12 12 11 10 9 9
17 18 17 17 18 18 19 16 17 19 19 16 15 15 14 12 11 11 10 10 10 10 8 8 8 8 10 10 9 9 9 9

GFSFLT1_850_temp_069.txt.gz
Temp
16 14 12 12 11 11 10 11 10 10 10 10 9 9 9 9 9 9 10 10 10 11 10 11 11 11 11 11 11 11 12 12
16 13 11 9 11 10 10 10 10 10 9 9 9 9 9 8 8 10 10 10 9 11 12 12 11 10 10 11 11 11 11 11
16 13 11 9 10 11 10 10 10 10 10 9 9 9 9 9 9 9 10 10 10 12 11 11 12 11 10 10 10 10 10 10
17 14 12 10 9 10 10 10 10 10 10 9 9 9 8 8 9 9 10 9 10 11 11 12 11 11 10 10 10 10 11 11
18 15 13 11 9 10 10 10 10 9 9 9 9 9 9 9 10 10 10 10 12 12 11 11 11 10 10 10 11 11 11 10
18 16 15 13 10 10 10 10 10 10 9 9 9 10 9 9 9 10 9 9 10 11 11 11 11 10 11 11 11 11 11 10
19 17 16 14 12 9 10 10 10 10 10 9 10 10 9 9 9 9 9 10 10 10 11 11 11 10 11 11 10 10 10 11
19 18 16 15 13 11 10 9 9 10 10 10 9 9 9 10 9 9 9 10 10 11 10 10 10 10 9 10 11 11 10 11
20 19 17 16 14 12 11 10 9 9 9 10 10 9 9 10 9 9 9 11 11 11 11 10 10 10 11 10 11 10 11 11
20 19 18 16 15 13 12 11 11 9 9 9 10 9 9 9 9 9 9 11 11 11 11 11 11 11 10 10 10 10 11 11
21 20 18 17 15 14 12 12 12 12 9 9 9 9 9 9 9 9 9 10 11 11 11 11 11 10 10 10 10 10 10 10
21 20 19 17 16 14 13 12 13 13 11 10 9 9 9 9 9 9 9 9 10 11 11 11 11 10 10 10 11 10 10 10
21 20 19 17 16 15 14 13 13 13 12 11 10 10 10 10 10 10 10 10 9 10 10 10 10 10 10 10 10 10 10 10
22 20 20 18 17 16 15 14 13 13 13 12 11 11 10 10 10 10 10 10 10 10 10 10 10 10 10 10 10 10 10 10
22 21 20 19 18 17 16 15 14 13 13 13 12 11 11 11 10 10 10 10 10 10 10 10 10 10 10 10 10 10 10 10
22 22 21 20 19 18 17 16 15 13 13 13 13 12 12 11 11 10 10 10 10 10 10 10 10 10 10 10 10 10 10 10
21 21 21 22 21 19 18 17 16 14 13 13 13 12 12 11 11 10 10 10 10 10 11 10 10 10 10 10 10 10 9 9
18 19 20 20 20 21 19 18 17 15 14 14 13 13 12 12 11 11 11 11 10 10 10 10 10 10 11 11 10 9 9 9
16 17 18 18 18 18 18 19 18 16 15 14 14 13 13 12 11 11 11 10 10 10 10 10 9 10 9 9 9 9 8 8

GFSFLT1_850_temp_072.txt.gz
Temp
18 16 14 12 11 11 10 11 10 10 9 10 10 10 10 10 10 10 10 9 9 11 10 11 11 11 12 12 12 12 12 12
19 16 13 12 11 11 10 11 10 10 10 10 9 10 9 9 10 9 9 9 9 11 11 12 12 12 12 12 12 12 12 12
18 15 13 11 10 10 11 11 11 10 10 10 9 10 9 9 9 9 9 9 10 10 11 11 11 11 11 11 11 11 11 11
18 15 13 11 10 10 10 10 11 10 10 10 9 9 9 9 9 9 9 10 10 10 11 11 11 12 11 11 11 11 11 11
19 16 14 12 10 10 11 11 11 10 9 9 10 9 9 9 9 9 9 10 11 11 10 11 12 12 12 12 12 11 11 11
20 17 15 13 11 11 10 10 11 10 9 9 9 9 9 9 9 9 10 10 10 10 10 11 12 12 12 12 12 11 11 10
20 18 16 14 12 10 10 10 10 10 9 9 10 10 9 9 9 9 9 9 10 10 10 10 12 12 12 12 11 10 11 10
21 18 17 15 13 12 9 10 10 10 10 9 9 9 9 9 10 10 10 9 9 10 10 11 11 11 12 11 11 10 11 11
21 19 17 16 14 12 11 10 9 9 9 9 9 9 10 9 10 10 10 10 10 10 10 11 11 11 11 10 11 10 11 11
21 20 18 16 15 13 12 10 10 9 9 9 10 9 9 9 9 10 9 9 11 11 11 11 11 11 11 11 11 11 11 11
22 20 18 17 16 14 12 12 11 10 9 9 9 9 9 9 9 9 9 9 10 11 10 11 11 11 11 11 11 11 11 10
22 21 19 18 16 15 13 12 12 12 11 10 9 9 10 9 10 10 9 9 9 9 10 11 11 11 11 11 11 11 10 10
22 21 20 18 17 16 14 13 13 12 12 12 10 10 10 9 9 10 10 10 10 10 10 11 11 11 11 11 11 11 11 11
22 21 20 19 18 16 15 14 13 13 13 12 11 11 11 10 10 10 10 10 10 10 10 10 11 11 11 11 11 11 11 10
23 22 21 20 19 17 16 15 14 13 13 13 12 12 13 12 11 10 10 10 9 10 10 10 10 11 11 11 11 11 10 10
22 21 21 21 20 19 17 16 15 14 13 13 13 12 12 11 11 11 10 10 10 10 10 10 10 10 10 10 10 10 10 10
19 19 19 20 21 20 19 18 17 15 15 14 13 13 12 12 11 11 11 10 10 10 10 10 10 10 10 10 10 10 10 10
15 16 17 17 18 18 18 19 18 17 16 15 14 13 13 12 12 11 11 11 11 11 11 10 10 10 10 10 10 10 10 10
13 13 14 14 15 16 17 17 17 18 17 16 14 14 13 13 12 12 11 11 11 10 10 10 10 10 10 10 10 10 10 10

GFSFLT1_850_temp_075.txt.gz
Temp
19 18 16 15 13 10 10 11 13 12 11 10 11 10 10 11 11 11 11 11 11 11 12 12 12 12 12 11 11 11 11 11
19 18 16 15 12 10 10 11 10 11 11 10 10 10 10 11 11 11 11 10 10 11 11 11 11 12 12 11 12 12 11 11
18 17 16 15 13 10 9 10 10 10 10 10 10 10 10 10 10 11 10 10 10 11 11 11 11 11 11 11 12 12 12 12
18 17 16 15 13 10 10 10 10 10 9 9 10 9 10 9 10 10 9 9 10 10 10 11 11 10 10 11 12 12 12 12
18 17 16 15 14 10 10 10 10 10 11 9 9 9 9 9 10 10 9 10 10 10 11 10 10 10 10 11 12 12 12 12
19 18 17 16 14 10 10 9 10 10 10 10 9 9 9 9 9 9 9 10 10 10 10 11 11 11 12 12 12 12 12 12
19 18 16 16 14 10 10 10 10 10 9 10 10 10 9 9 9 9 9 9 9 10 10 11 11 11 12 12 12 11 11 11
18 17 16 15 14 12 10 10 10 10 9 9 10 10 10 10 9 9 9 9 9 10 10 10 11 11 11 11 12 11 11 11
19 18 17 16 15 13 10 10 10 9 9 9 9 10 10 10 10 10 10 10 10 10 10 10 11 11 11 11 12 11 12 11
19 18 18 17 16 14 14 11 10 10 9 9 9 9 10 10 10 10 10 10 10 10 11 11 10 11 10 11 11 11 11 11
19 18 18 17 17 15 14 13 12 10 9 9 9 9 9 9 10 11 10 10 10 10 10 10 10 10 10 10 11 11 10 11
20 19 18 18 17 16 15 13 12 12 10 9 9 9 9 9 9 10 10 10 10 11 11 10 10 10 11 11 10 11 11 11
20 20 18 18 17 16 16 15 13 12 12 11 10 9 9 9 9 9 9 10 10 10 10 11 11 11 11 11 11 11 11 11
21 20 19 18 17 17 16 15 14 13 12 12 11 11 10 9 9 9 9 9 9 10 10 10 11 11 11 11 11 11 11 11
19 19 19 19 18 18 17 16 16 15 13 12 12 12 12 11 9 10 9 9 9 9 10 10 10 11 10 11 11 11 11 11
15 16 16 16 17 17 18 18 17 16 15 14 13 13 12 12 12 10 10 9 9 10 10 10 10 10 10 11 11 11 11 11
13 14 14 15 15 15 15 15 16 16 16 15 15 14 13 12 12 12 11 11 10 9 9 9 9 10 10 10 10 10 10 10
13 13 12 13 14 13 14 14 14 14 15 16 15 15 14 13 13 12 12 11 11 11 10 9 9 9 10 10 10 9 9 10
12 12 13 12 12 13 14 14 14 15 13 12 12 13 14 14 13 13 12 12 12 11 11 10 10 10 10 10 9 9 10 10

GFSFLT1_850_temp_078.txt.gz
Temp
20 19 18 17 16 15 14 13 12 12 10 10 11 11 11 11 11 11 11 12 13 13 13 13 13 12 12 12 11 11 12 12
19 18 18 16 15 14 14 12 12 12 10 10 10 11 11 11 11 12 12 11 12 12 13 13 12 12 12 11 11 11 11 11
18 17 17 15 15 14 13 12 12 11 10 10 11 11 11 11 11 11 12 11 11 11 12 12 12 11 11 11 11 11 11 11
18 17 16 15 14 14 14 11 11 11 10 10 10 10 10 10 11 10 10 10 10 11 11 12 11 12 11 11 11 11 11 11
19 17 16 15 14 14 13 12 11 10 9 10 10 10 10 10 11 10 10 10 10 10 10 11 11 11 11 11 11 11 12 11
19 19 17 15 14 14 13 10 10 10 11 10 10 10 10 10 10 10 10 9 9 10 10 11 11 11 11 11 11 11 11 11
18 17 17 15 14 13 13 10 10 10 10 10 10 10 10 9 9 9 9 9 9 10 10 10 10 11 11 11 10 10 12 12
16 17 16 15 15 13 12 10 10 10 10 10 11 10 10 10 9 9 10 9 9 9 10 10 10 10 10 10 10 11 11 12
18 19 17 16 15 13 14 10 10 9 9 10 10 11 11 11 11 10 10 10 10 10 10 10 10 10 10 10 10 11 11 11
18 18 17 17 16 15 15 10 10 10 9 9 10 10 10 10 10 11 10 11 10 10 10 10 10 10 10 11 11 11 11 11
17 18 18 17 16 15 15 15 10 10 9 9 9 10 9 9 10 10 10 10 10 10 10 10 10 10 11 11 11 11 11 11
18 18 18 17 16 15 15 14 12 10 9 9 9 9 9 10 10 10 10 10 10 10 10 11 10 10 10 11 11 12 11 11
18 18 18 17 17 16 16 15 14 13 12 10 9 9 9 9 10 10 10 10 10 10 10 10 10 10 10 11 11 10 10 10
16 15 17 18 17 17 16 16 15 15 14 12 11 10 9 9 9 9 9 9 10 10 10 10 10 10 10 10 11 11 10 10
15 15 14 13 13 13 14 14 15 15 14 13 13 12 11 10 9 9 9 9 9 9 9 9 10 10 10 10 10 10 11 10
11 12 13 14 13 12 12 13 13 13 13 13 14 14 13 12 11 10 9 9 9 9 9 9 9 9 9 9 10 10 10 10
10 10 11 11 12 12 12 13 13 13 13 13 12 12 12 12 12 12 12 11 10 9 9 9 9 9 9 9 9 9 9 9
9 9 9 10 10 11 12 12 12 12 11 11 10 10 11 12 12 12 12 11 11 11 11 10 10 10 10 9 9 9 9 10
7 8 9 9 9 10 10 11 11 10 10 10 11 11 10 10 10 10 11 11 12 12 11 11 11 11 11 10 10 9 9 9

GFSFLT1_850_temp_084.txt.gz
Temp
21 21 21 20 18 17 16 15 14 13 12 12 11 11 11 11 11 11 11 11 11 11 11 12 12 11 11 10 10 10 11 11
20 20 20 19 17 17 16 14 14 13 12 11 11 11 11 11 11 11 10 10 10 10 11 12 11 12 11 10 10 10 10 11
20 20 19 18 17 17 15 15 14 14 12 12 10 10 11 11 11 10 10 10 10 10 11 11 11 12 10 10 10 10 10 11
18 19 19 17 17 16 15 15 14 13 12 11 10 10 10 10 10 11 11 10 10 11 11 11 11 12 11 11 11 10 10 10
18 17 17 17 17 16 15 14 13 13 12 11 9 10 10 10 11 11 11 10 10 11 11 11 12 11 11 11 11 10 11 11
18 18 16 16 16 15 15 14 13 13 12 11 9 10 10 10 11 10 10 10 11 11 11 11 11 11 11 11 11 11 11 11
16 16 15 14 13 14 14 13 13 13 12 10 10 9 10 10 10 10 10 10 11 10 10 10 9 10 11 11 12 11 11 11
18 18 15 15 14 14 14 13 13 13 12 10 10 9 9 10 10 10 10 11 10 9 9 9 9 8 10 11 11 11 11 11
20 20 16 14 13 14 14 14 13 13 12 11 9 10 9 10 10 10 10 10 11 10 10 9 9 8 8 10 10 11 11 11
19 18 14 13 14 15 15 15 14 13 11 11 10 9 9 9 9 9 10 10 10 10 10 9 9 9 8 8 10 10 10 10
16 15 14 12 13 16 15 14 15 12 10 9 9 10 9 9 9 10 10 9 10 10 10 10 9 9 8 9 9 9 10 10
13 12 12 12 13 15 14 13 14 12 10 9 9 9 9 9 10 9 9 9 9 9 9 9 9 9 9 9 9 10 10 10
11 10 9 10 12 13 13 13 13 12 10 9 8 9 9 9 9 9 9 9 9 9 9 9 9 9 9 9 10 10 10 10
10 10 9 10 11 12 13 13 12 11 10 9 9 8 9 9 9 9 9 9 9 9 9 9 9 9 9 9 10 10 10 10
9 9 10 10 11 11 12 13 12 12 11 10 10 9 9 8 8 9 9 10 10 9 9 9 9 9 9 9 9 9 9 9
7 8 9 9 9 10 10 11 11 11 11 11 11 10 10 10 9 9 9 9 9 9 9 9 9 9 9 9 9 9 9 9
4 5 7 8 9 9 9 10 11 11 10 10 10 10 10 10 9 9 9 9 9 9 9 9 9 9 9 9 9 8 9 9
1 2 3 5 7 8 9 9 10 10 9 9 9 9 9 9 9 9 9 9 10 9 9 9 9 9 9 9 8 8 8 8
-1 0 1 3 4 7 8 7 8 9 9 8 9 9 9 9 9 9 9 9 9 9 9 9 9 9 9 9 9 9 9 9

GFSFLT1_850_temp_087.txt.gz
Temp
20 20 21 21 21 18 17 17 16 16 14 13 12 11 11 11 11 11 11 11 11 10 10 10 10 10 11 11 11 11 11 11
19 20 20 21 20 19 17 17 16 16 14 13 11 10 11 11 10 11 11 11 10 10 11 10 10 10 11 11 10 11 10 10
19 20 20 20 20 19 16 16 16 15 14 13 11 11 10 11 11 11 11 10 10 10 11 11 11 11 11 10 10 10 10 10
19 19 19 19 19 18 16 16 16 15 14 13 11 10 10 10 10 11 10 10 10 10 11 10 11 11 11 10 10 10 10 10
19 19 19 18 17 16 16 15 16 15 14 13 10 10 10 10 10 10 10 10 10 10 10 10 10 11 11 10 10 10 11 11
19 20 18 16 16 15 15 15 15 15 14 11 9 10 10 9 10 10 10 10 10 10 10 10 10 10 10 11 10 10 10 10
18 17 15 15 14 15 15 15 15 14 13 10 10 9 10 10 10 10 10 10 9 10 10 10 10 10 10 11 10 10 10 10
16 15 15 13 15 15 15 14 14 14 12 10 10 9 10 10 10 10 10 10 10 10 10 10 10 10 11 11 11 10 10 10
13 15 14 11 15 12 14 14 14 13 11 9 10 9 10 10 10 10 10 10 10 10 10 10 10 10 10 10 10 10 10 10
13 14 16 13 14 12 13 13 14 13 10 10 10 9 9 9 9 9 10 10 11 10 10 10 10 9 9 9 9 10 10 10
14 14 14 11 10 10 12 13 14 12 10 10 9 9 9 9 10 9 9 10 10 10 11 10 9 10 9 9 9 9 9 9
10 10 10 9 9 10 10 12 12 11 10 9 9 9 9 9 9 9 9 9 9 10 10 9 9 9 9 9 8 8 8 9
9 9 9 9 9 10 10 11 12 11 10 9 9 9 9 9 9 9 9 9 9 9 9 9 9 9 9 9 8 8 9 9
9 9 8 8 8 10 10 12 12 11 10 9 9 8 9 9 9 9 9 9 9 9 8 9 9 9 9 9 9 9 9 9
8 8 8 8 8 10 10 12 12 12 10 9 8 8 8 8 9 9 9 9 9 9 9 9 9 9 9 9 9 9 9 9
4 5 7 8 8 9 9 10 10 11 10 9 9 8 8 8 8 8 9 9 9 9 9 9 9 9 9 9 9 9 9 9
1 2 4 7 8 8 9 8 9 10 9 9 9 9 9 8 8 8 8 8 8 9 9 9 9 9 9 9 9 9 9 9
-1 0 1 3 6 7 9 9 9 9 9 9 9 9 9 9 9 9 9 9 9 9 9 9 9 8 8 8 8 8 8 8
-2 -1 0 1 3 6 7 8 9 8 8 8 8 8 8 8 8 8 9 9 9 9 9 9 9 9 9 9 9 9 9 9

GFSFLT1_850_temp_093.txt.gz
Temp
22 22 22 22 22 22 20 18 17 17 15 15 17 16 16 15 14 13 13 12 12 12 12 11 11 12 11 11 10 10 11 12
22 22 22 22 22 21 20 18 16 16 14 14 16 15 15 14 13 13 13 12 12 12 11 11 11 11 11 11 10 10 11 12
23 22 22 21 21 20 19 18 16 15 14 14 13 13 13 13 13 13 13 11 11 11 11 11 11 11 11 10 10 10 11 12
22 22 22 21 21 19 18 18 17 15 13 13 13 13 12 12 12 11 11 11 11 11 10 11 11 10 11 10 10 10 10 11
20 21 21 21 21 19 18 18 17 15 13 15 14 12 12 12 11 11 11 11 11 11 11 11 11 10 10 10 10 10 10 11
20 21 21 21 21 19 17 17 17 13 14 15 14 13 13 12 11 11 12 12 11 10 11 11 10 10 10 10 9 10 10 11
19 20 20 21 21 19 16 16 16 14 14 14 14 13 14 13 11 11 11 11 10 10 10 10 10 10 10 10 10 10 11 11
19 19 20 21 21 17 15 15 16 15 14 13 13 13 12 12 11 11 11 10 10 10 10 10 10 10 10 10 10 10 11 11
18 19 19 19 18 14 12 15 15 15 13 13 13 12 11 11 11 11 11 11 10 10 10 10 10 10 10 9 9 10 10 10
16 17 18 17 15 11 12 14 15 14 13 12 12 11 11 11 11 11 11 10 10 10 10 10 10 10 10 9 9 10 10 10
11 15 18 17 12 10 11 13 14 12 12 11 11 11 10 10 11 10 10 10 10 9 9 10 9 10 10 10 9 10 10 10
7 10 15 16 13 10 10 12 13 12 11 10 11 10 10 10 10 10 10 10 9 9 9 8 9 9 9 9 10 10 10 10
6 8 10 12 10 10 10 11 12 10 11 10 11 10 10 9 9 10 10 9 9 9 9 9 9 9 9 9 10 10 10 10
5 6 8 9 10 9 10 10 10 10 10 9 10 10 10 10 9 9 9 9 9 9 9 9 9 9 9 10 10 10 10 10
3 4 5 8 9 9 9 9 9 9 9 9 10 10 10 9 9 9 9 9 9 9 9 9 10 9 10 10 9 9 9 9
1 2 3 5 8 8 9 9 9 9 9 9 9 9 9 9 9 9 9 9 9 9 9 9 9 9 9 9 9 9 9 9
-1 0 1 2 5 7 8 9 9 10 9 9 9 9 9 9 9 9 9 9 9 9 9 9 9 9 9 9 9 9 9 9
-2 -1 -1 -0 2 5 6 8 9 9 9 9 9 9 9 8 9 8 8 9 9 9 9 9 9 9 9 9 9 9 9 9
-4 -2 -2 -1 -0 3 4 6 8 9 9 9 9 9 9 9 9 9 9 9 9 8 8 8 9 9 9 9 9 9 9 9

GFSFLT1_850_temp_096.txt.gz
Temp
23 23 23 23 23 23 23 21 20 20 17 15 15 15 14 15 16 16 16 15 14 13 12 12 12 11 12 11 11 11 11 11
22 23 23 23 23 23 23 21 19 20 18 15 14 15 14 14 14 15 14 14 14 12 12 12 11 11 11 11 11 11 10 10
22 23 23 22 22 22 22 20 19 19 18 16 13 14 14 14 14 15 13 13 13 12 12 11 11 11 11 11 11 10 10 10
23 23 23 22 22 22 22 20 19 18 18 14 13 13 13 13 13 12 12 13 12 12 11 11 11 11 11 11 11 10 10 10
21 21 21 22 22 22 21 20 19 17 17 14 13 13 13 12 12 13 12 13 12 10 10 11 11 11 11 11 11 11 10 10
20 20 20 21 22 21 21 20 19 17 17 15 14 13 13 12 12 12 12 11 11 11 11 11 11 10 10 11 10 10 10 10
19 20 20 20 21 21 20 19 18 17 17 15 14 14 13 14 13 12 12 12 11 11 11 11 11 10 11 11 10 10 10 10
17 19 20 21 21 21 19 18 18 17 16 15 15 15 15 14 13 12 12 11 11 11 10 10 11 10 11 10 10 10 10 10
13 15 17 20 21 19 18 17 17 16 15 14 15 14 14 14 13 12 12 11 11 11 10 10 10 10 10 10 10 10 10 9
10 12 13 19 17 16 16 15 16 16 15 14 14 13 13 13 12 11 11 11 11 10 10 10 10 10 10 10 10 10 9 9
9 9 10 14 17 15 15 15 16 16 15 14 13 13 12 11 11 11 11 11 11 11 10 10 10 10 10 10 10 10 9 9
6 7 10 11 13 14 13 13 13 15 14 13 12 11 11 10 10 11 11 11 10 10 10 9 10 10 10 10 10 9 9 9
4 7 8 9 10 10 12 12 12 13 13 11 11 10 10 10 10 10 10 10 9 9 9 9 9 10 10 9 10 9 10 10
2 5 6 7 9 9 10 10 11 11 11 11 10 10 10 9 10 10 9 9 9 9 9 9 9 9 9 9 10 9 9 9
1 1 4 5 7 8 9 9 10 10 11 10 10 10 10 9 9 10 10 9 9 9 9 9 9 9 9 9 9 8 9 9
-0 -1 0 3 4 7 8 9 9 10 10 10 10 10 10 10 10 10 10 9 9 9 9 9 9 9 9 9 9 9 8 8
-3 -3 -2 -0 2 3 5 8 9 9 9 9 9 10 10 10 9 10 9 9 9 9 9 9 9 8 9 9 9 9 8 8
-4 -5 -4 -2 -0 1 3 4 7 8 9 9 9 9 9 9 9 9 9 9 10 9 9 9 9 9 9 9 9 8 9 8
-6 -5 -5 -4 -2 1 1 1 3 6 9 9 9 9 9 9 9 9 9 9 9 9 9 9 9 9 9 9 9 9 9 9